Location: Waco, TX
(31.5480°N, 97.1670°W)
Time: 03:05:58
(UTC-05:00)

ISS - Pass Details

Date: 18 September 2017
Orbit: 401 x 407 km, 51.6° (Epoch: 22 September)

Event Time Altitude Azimuth Distance (km) Brightness Sun altitude
Rises 23:15:26 0° 240° (WSW) 2,307 - -45.3°
Reaches altitude 10° 23:17:36 10° 249° (WSW) 1,452 - -45.7°
Maximum altitude 23:20:40 38° 319° (NW) 639 - -46.2°
Drops below altitude 10° 23:23:45 10° 29° (NNE) 1,462 - -46.7°
Sets 23:25:56 0° 38° (NE) 2,326 - -47.0°
